• In Russia
  • List of Countries
  • For 7 days
  • Water Temperature
  • Satellite Maps
  • Weather Map
  • Weather Widgets
  • user-avatar
    Login

    Hourly Weather Milonow

    Today, 22 February, Friday

    Time Temperature Precipitation Wind Pressure Humidity
    00:00 +6°C° 1 mm 5 mps 753 mmHg 91%
    01:00 +5°C° 0 mm 4 mps 753 mmHg 92%
    02:00 +5°C° 0.6 mm 5 mps 754 mmHg 93%
    03:00 +6°C° 0.6 mm 5 mps 754 mmHg 93%
    04:00 +5°C° 0.6 mm 6 mps 754 mmHg 93%
    05:00 +3°C° 0.1 mm 6 mps 755 mmHg 89%
    06:00 +2°C° 0.1 mm 6 mps 756 mmHg 85%
    07:00 0°C° 0 mm 5 mps 758 mmHg 80%
    08:00 -1°C° 0 mm 6 mps 759 mmHg 75%
    09:00 -2°C° 0 mm 6 mps 760 mmHg 70%
    10:00 -2°C° 0 mm 6 mps 761 mmHg 65%
    11:00 -2°C° 0 mm 6 mps 762 mmHg 59%
    12:00 -2°C° 0 mm 6 mps 763 mmHg 52%
    13:00 -1°C° 0 mm 6 mps 764 mmHg 46%
    14:00 -2°C° 0 mm 6 mps 764 mmHg 45%
    15:00 -2°C° 0 mm 6 mps 765 mmHg 45%
    16:00 -2°C° 0 mm 5 mps 765 mmHg 44%
    17:00 -2°C° 0 mm 5 mps 766 mmHg 47%
    18:00 -3°C° 0 mm 4 mps 767 mmHg 51%
    19:00 -4°C° 0 mm 3 mps 768 mmHg 55%
    20:00 -4°C° 0 mm 3 mps 768 mmHg 53%
    21:00 -4°C° 0 mm 3 mps 769 mmHg 52%
    22:00 -4°C° 0 mm 3 mps 770 mmHg 50%
    23:00 -4°C° 0 mm 3 mps 770 mmHg 48%

    Tomorrow, 23 February, Saturday

    Time Temperature Precipitation Wind Pressure Humidity
    00:00 -3°C° 0 mm 2 mps 770 mmHg 46%
    01:00 -3°C° 0 mm 2 mps 770 mmHg 43%
    02:00 -3°C° 0 mm 2 mps 770 mmHg 43%
    03:00 -4°C° 0 mm 2 mps 770 mmHg 42%
    04:00 -2°C° 0 mm 1 mps 770 mmHg 41%
    05:00 -2°C° 0 mm 1 mps 770 mmHg 42%
    06:00 -2°C° 0 mm 1 mps 771 mmHg 42%
    07:00 -2°C° 0 mm 1 mps 771 mmHg 42%
    08:00 -1°C° 0 mm 1 mps 771 mmHg 38%
    09:00 -1°C° 0 mm 1 mps 771 mmHg 34%
    10:00 -2°C° 0 mm 2 mps 771 mmHg 31%
    11:00 -1°C° 0 mm 2 mps 771 mmHg 28%
    12:00 +2°C° 0 mm 1 mps 771 mmHg 26%
    13:00 +2°C° 0 mm 1 mps 770 mmHg 24%
    14:00 +2°C° 0 mm 1 mps 770 mmHg 25%
    15:00 +2°C° 0 mm 1 mps 770 mmHg 26%
    16:00 +2°C° 0 mm 1 mps 769 mmHg 27%
    17:00 +2°C° 0 mm 1 mps 769 mmHg 30%
    18:00 +1°C° 0 mm 1 mps 769 mmHg 34%
    19:00 0°C° 0 mm 1 mps 769 mmHg 37%
    20:00 0°C° 0 mm 1 mps 769 mmHg 38%
    21:00 -3°C° 0 mm 2 mps 769 mmHg 38%
    22:00 -3°C° 0 mm 2 mps 769 mmHg 39%
    23:00 -3°C° 0 mm 2 mps 769 mmHg 39%

    Day after tomorrow, 24 February, Sunday

    Time Temperature Precipitation Wind Pressure Humidity
    00:00 -1°C° 0 mm 1 mps 768 mmHg 39%
    01:00 -1°C° 0 mm 1 mps 768 mmHg 38%
    02:00 0°C° 0 mm 1 mps 768 mmHg 37%
    03:00 0°C° 0 mm 1 mps 768 mmHg 35%
    04:00 0°C° 0 mm 0 mps 768 mmHg 34%
    05:00 -1°C° 0 mm 0 mps 768 mmHg 34%
    06:00 0°C° 0 mm 1 mps 768 mmHg 33%
    07:00 0°C° 0 mm 1 mps 767 mmHg 33%
    08:00 +2°C° 0 mm 1 mps 767 mmHg 30%
    09:00 +3°C° 0 mm 1 mps 767 mmHg 28%
    10:00 +4°C° 0 mm 1 mps 767 mmHg 25%
    11:00 +4°C° 0 mm 2 mps 767 mmHg 26%
    12:00 +6°C° 0 mm 2 mps 767 mmHg 26%
    13:00 +7°C° 0 mm 3 mps 767 mmHg 26%
    14:00 +6°C° 0 mm 2 mps 767 mmHg 32%
    15:00 +6°C° 0 mm 2 mps 766 mmHg 39%
    16:00 +6°C° 0 mm 2 mps 766 mmHg 45%
    17:00 +4°C° 0 mm 2 mps 766 mmHg 47%
    18:00 +3°C° 0 mm 2 mps 767 mmHg 49%
    19:00 +2°C° 0 mm 2 mps 767 mmHg 51%
    20:00 +2°C° 0 mm 2 mps 767 mmHg 53%
    21:00 +1°C° 0 mm 2 mps 767 mmHg 55%
    22:00 +1°C° 0 mm 2 mps 767 mmHg 56%
    23:00 +1°C° 0 mm 2 mps 767 mmHg 57%

    25 February, Monday

    Time Temperature Precipitation Wind Pressure Humidity
    00:00 +1°C° 0 mm 2 mps 767 mmHg 58%
    01:00 +1°C° 0 mm 2 mps 767 mmHg 59%
    02:00 0°C° 0 mm 3 mps 767 mmHg 60%
    03:00 0°C° 0 mm 3 mps 767 mmHg 61%
    04:00 0°C° 0 mm 3 mps 767 mmHg 62%
    05:00 -1°C° 0 mm 3 mps 767 mmHg 64%
    06:00 -1°C° 0 mm 3 mps 767 mmHg 65%
    07:00 -1°C° 0 mm 3 mps 767 mmHg 67%
    08:00 +1°C° 0 mm 3 mps 767 mmHg 65%
    09:00 +2°C° 0 mm 3 mps 767 mmHg 62%
    10:00 +4°C° 0 mm 3 mps 768 mmHg 59%
    11:00 +5°C° 0 mm 3 mps 767 mmHg 59%
    12:00 +7°C° 0 mm 3 mps 767 mmHg 59%
    13:00 +8°C° 0 mm 3 mps 767 mmHg 59%
    14:00 +8°C° 0 mm 3 mps 766 mmHg 61%
    15:00 +8°C° 0 mm 2 mps 766 mmHg 63%
    16:00 +8°C° 0 mm 2 mps 766 mmHg 64%
    17:00 +7°C° 0 mm 2 mps 766 mmHg 69%
    18:00 +6°C° 0 mm 2 mps 766 mmHg 73%
    19:00 +5°C° 0 mm 2 mps 766 mmHg 77%
    20:00 +4°C° 0 mm 2 mps 766 mmHg 77%
    21:00 +4°C° 0 mm 2 mps 766 mmHg 76%
    22:00 +3°C° 0 mm 3 mps 765 mmHg 76%
    23:00 +2°C° 0 mm 3 mps 765 mmHg 75%

    26 February, Tuesday

    Time Temperature Precipitation Wind Pressure Humidity
    00:00 +2°C° 0 mm 3 mps 765 mmHg 75%
    01:00 +2°C° 0 mm 3 mps 764 mmHg 74%
    02:00 +2°C° 0 mm 3 mps 764 mmHg 74%
    03:00 +2°C° 0 mm 3 mps 763 mmHg 74%
    04:00 +1°C° 0 mm 4 mps 763 mmHg 74%
    05:00 +1°C° 0 mm 4 mps 763 mmHg 75%
    06:00 +1°C° 0 mm 4 mps 762 mmHg 77%
    07:00 +1°C° 0 mm 4 mps 762 mmHg 78%
    08:00 +3°C° 0 mm 5 mps 762 mmHg 73%
    09:00 +4°C° 0 mm 6 mps 762 mmHg 68%
    10:00 +6°C° 0 mm 7 mps 761 mmHg 62%
    11:00 +8°C° 0 mm 7 mps 761 mmHg 58%
    12:00 +9°C° 0 mm 7 mps 761 mmHg 54%
    13:00 +10°C° 0 mm 7 mps 760 mmHg 50%
    14:00 +9°C° 0 mm 6 mps 760 mmHg 55%
    15:00 +8°C° 0 mm 5 mps 760 mmHg 60%
    16:00 +8°C° 0 mm 4 mps 760 mmHg 65%
    17:00 +7°C° 0 mm 4 mps 760 mmHg 70%
    18:00 +7°C° 0 mm 3 mps 760 mmHg 74%
    19:00 +5°C° 0 mm 3 mps 761 mmHg 78%
    20:00 +5°C° 0 mm 3 mps 761 mmHg 82%
    21:00 +4°C° 0 mm 3 mps 761 mmHg 86%
    22:00 +3°C° 0 mm 3 mps 761 mmHg 90%
    23:00 +3°C° 0 mm 3 mps 761 mmHg 91%

    27 February, Wednesday

    Time Temperature Precipitation Wind Pressure Humidity
    00:00 +3°C° 0 mm 3 mps 761 mmHg 92%
    01:00 +2°C° 0 mm 3 mps 761 mmHg 93%
    02:00 +2°C° 0 mm 3 mps 761 mmHg 94%
    03:00 +1°C° 0 mm 3 mps 761 mmHg 94%
    04:00 +2°C° 0 mm 2 mps 760 mmHg 94%
    05:00 +2°C° 0 mm 2 mps 760 mmHg 94%
    06:00 +2°C° 0 mm 2 mps 760 mmHg 94%
    07:00 +1°C° 0 mm 2 mps 760 mmHg 94%
    08:00 +3°C° 0 mm 2 mps 760 mmHg 86%
    09:00 +4°C° 0 mm 2 mps 760 mmHg 79%
    10:00 +6°C° 0 mm 2 mps 760 mmHg 72%
    11:00 +7°C° 0 mm 2 mps 759 mmHg 64%
    12:00 +9°C° 0 mm 2 mps 759 mmHg 57%
    13:00 +10°C° 0 mm 2 mps 758 mmHg 49%
    14:00 +11°C° 0 mm 1 mps 758 mmHg 49%
    15:00 +12°C° 0 mm 1 mps 757 mmHg 49%
    16:00 +12°C° 0 mm 1 mps 757 mmHg 49%
    17:00 +11°C° 0 mm 1 mps 756 mmHg 53%
    18:00 +9°C° 0 mm 1 mps 756 mmHg 56%
    19:00 +7°C° 0 mm 2 mps 756 mmHg 59%
    20:00 +7°C° 0 mm 2 mps 755 mmHg 65%
    21:00 +7°C° 0 mm 2 mps 755 mmHg 71%
    22:00 +6°C° 0 mm 2 mps 755 mmHg 76%
    23:00 +6°C° 0 mm 2 mps 754 mmHg 80%
    Show more